FW2523 Weather Reports


Display with metric or nautical units.
time (UTC)temp
F
wind
direction
speed
MPH
gust
MPH
rain 1hr
in
rain 24hr
in
rain mn
in
humidity
%
barometer
mb
20260505013047 65 360 0.0 1.0 0.00 0.00 0.00 33 1015.8
20260505011547 66 360 0.0 1.0 0.00 0.00 0.00 31 1015.7
20260505011513 66 360 0.0 1.0 0.00 0.00 0.00 31 1015.6
20260505010054 67 360 0.0 1.0 0.00 0.00 0.00 29 1015.4
20260505004556 68 360 0.0 1.0 0.00 0.00 0.00 28 1015.4
20260505003031 70 360 0.0 0.0 0.00 0.00 0.00 26 1015.2
20260505001528 71 360 0.0 1.0 0.00 0.00 0.00 24 1015.0
20260505000025 72 360 0.0 2.0 0.00 0.00 0.00 23 1014.9
20260504234521 73 360 0.0 3.0 0.00 0.00 0.00 22 1014.7
20260504233022 74 360 1.0 3.0 0.00 0.00 0.00 22 1014.5
20260504231515 75 360 1.0 5.0 0.00 0.00 0.00 21 1014.5
20260504230015 75 360 1.0 8.0 0.00 0.00 0.00 20 1014.4
20260504224510 75 360 2.0 6.0 0.00 0.00 0.00 20 1014.5
20260504223010 76 360 1.0 5.0 0.00 0.00 0.00 18 1014.5
20260504221509 76 186 1.0 5.0 0.00 0.00 0.00 18 1014.5
20260504220008 77 142 1.0 7.0 0.00 0.00 0.00 18 1014.5
20260504214501 78 131 1.0 7.0 0.00 0.00 0.00 17 1014.5
20260504213102 78 143 2.0 5.0 0.00 0.00 0.00 18 1014.5
20260504211556 78 148 2.0 7.0 0.00 0.00 0.00 19 1014.5
20260504210056 78 119 3.0 8.0 0.00 0.00 0.00 18 1014.6
20260504204552 78 334 2.0 8.0 0.00 0.00 0.00 17 1014.8
20260504203051 77 121 2.0 7.0 0.00 0.00 0.00 17 1014.9
20260504201551 78 150 2.0 8.0 0.00 0.00 0.00 19 1015.2
20260504200049 78 309 1.0 8.0 0.00 0.00 0.00 17 1015.5
20260504194522 78 17 1.0 9.0 0.00 0.00 0.00 19 1015.5
20260504193018 78 123 3.0 8.0 0.00 0.00 0.00 19 1015.7
20260504191511 78 128 1.0 6.0 0.00 0.00 0.00 20 1015.8
20260504190017 77 135 4.0 10.0 0.00 0.00 0.00 20 1016.0
20260504184526 77 149 3.0 8.0 0.00 0.00 0.00 20 1016.2
20260504183006 77 135 2.0 7.0 0.00 0.00 0.00 21 1016.3
20260504181502 76 98 2.0 5.0 0.00 0.00 0.00 18 1016.5
20260504180101 77 107 1.0 4.0 0.00 0.00 0.00 17 1016.7
20260504174556 75 157 1.0 7.0 0.00 0.00 0.00 18 1016.8
20260504173053 76 293 1.0 4.0 0.00 0.00 0.00 20 1016.9
20260504171522 74 242 1.0 8.0 0.00 0.00 0.00 20 1017.2
20260504081529 46 360 0.0 0.0 0.00 0.00 0.00 62 1017.7
20260504050108 53 360 0.0 2.0 0.00 0.00 0.00 51 1017.8
20260504044557 53 360 0.0 0.0 0.00 0.00 0.00 51 1017.9
20260504043101 53 360 0.0 1.0 0.00 0.00 0.00 52 1017.8
20260504041553 53 360 0.0 1.0 0.00 0.00 0.00 52 1017.9
20260504040052 53 360 0.0 0.0 0.00 0.00 0.00 52 1018.3
20260504034556 53 360 0.0 0.0 0.00 0.00 0.00 51 1018.5
20260504033056 53 106 0.0 1.0 0.00 0.00 0.00 51 1018.3
20260504031600 54 360 0.0 0.0 0.00 0.00 0.00 50 1018.4
20260504030101 55 360 0.0 0.0 0.00 0.00 0.00 49 1018.2
20260504024546 56 360 0.0 0.0 0.00 0.00 0.00 47 1018.4
20260504023036 56 360 0.0 0.0 0.00 0.00 0.00 46 1018.1
20260504021536 57 360 0.0 1.0 0.00 0.00 0.00 45 1018.0
20260504020032 57 360 0.0 0.0 0.00 0.00 0.00 44 1017.8
20260504014530 58 96 0.0 0.0 0.00 0.00 0.00 43 1017.6